Regional Weather Roundup
Issued by NWS Nashville, TN

Home | Current Version | Previous Version | Text Only | Print | Product List | Glossary On
Versions: 1 2 3 4 5 6 7 8 9 10 11 12 13 14 15 16 17 18 19 20 21 22 23 24 25 26 27 28 29 30 31 32 33 34 35 36 37 38 39 40 41 42 43 44 45 46 47 48 49 50
000
ASUS44 KOHX 200415
RWROHX
MIDDLE TENNESSEE HOURLY WEATHER ROUNDUP
NATIONAL WEATHER SERVICE NASHVILLE TN
1100 PM CDT FRI SEP 19 2014

NOTE: "FAIR" INDICATES FEW OR NO CLOUDS BELOW 12,000 FEET WITH
NO SIGNIFICANT WEATHER AND/OR OBSTRUCTIONS TO VISIBILITY.

* THESE REPORTS ARE NOT UNDER NWS QUALITY CONTROL AND MAY NOT
  REPORT WEATHER SUCH AS PRECIPITATION AND FOG.


TNZ005>011-023>034-057-059-062>066-078-080-200500
...NORTHERN MIDDLE TENNESSEE...

CITY           SKY/WX    TMP DP  RH WIND       PRES   REMARKS
CLARKSVILLE    CLEAR     67  62  84 CALM      30.05S
CROSSVILLE     CLEAR     67  61  81 S5        30.17R
GALLATIN       MOCLDY    68  66  93 CALM      30.08R
DICKSON        CLEAR     66  64  94 CALM      30.06S
LEBANON        PTCLDY    68  65  90 CALM      30.06R
LIVINGSTON     PTCLDY    71  62  73 S5        30.12R
NASHVILLE      PTCLDY    70  65  84 SE3       30.07R
WEST NASHVILLE   N/A     70  70 100 CALM      30.06R
PORTLAND       PTCLDY    64  63  94 CALM      30.07R
SMYRNA         PTCLDY    70  67  90 CALM      30.08R
SPARTA         CLEAR     70  64  83 S3        30.11R
$$
TNZ056-058-060-061-075>077-079-093>097-200500
...SOUTHERN MIDDLE TENNESSEE...

CITY           SKY/WX    TMP DP  RH WIND       PRES   REMARKS
COLUMBIA       MOCLDY    70  70 100 CALM      30.07R
FAYETTEVILLE   PTCLDY    70  63  78 S6        30.10S
LEWISBURG      PTCLDY    70  66  86 CALM      30.07R
MCMINNVILLE    CLEAR     72  68  88 VRB3      30.12R
MURFREESBORO   CLEAR     72  64  75 S5        30.07R
SHELBYVILLE    MOCLDY    72  66  83 SE3       30.10R
TULLAHOMA      CLEAR     70  63  78 SE5       30.12R
WINCHESTER     CLEAR     72  63  73 SE12      30.11R
$$


...KEY TO REMARKS...
VSB - VISIBILITY IN MILES
WCI - WIND CHILL INDEX
HX  - HEAT INDEX




USA.gov is the U.S. government's official web portal to all federal, state and local government web resources and services.